This is the latest recevied weather packets stored in our database for station/object WR9A-13. If no packets are shown the sender has not sent any weather packets the latest 10 day(s).
| Time | Temp. | Humidity | Pressure | Rain* | Wind** | Luminosity | Snow |
|---|---|---|---|---|---|---|---|
| 1787931322 | 25.56° C | 65% | 1021.8 hPa | 0 mm | - | - | - |
| 1787931019 | 26.11° C | 67% | 1021.9 hPa | 0 mm | - | - | - |
| 1787930723 | 25.56° C | 69% | 1021.9 hPa | 0 mm | - | - | - |
| 1787930420 | 25° C | 69% | 1021.9 hPa | 0 mm | - | - | - |
| 1787930128 | 24.44° C | 72% | 1022 hPa | 0 mm | - | - | - |
| 1787929825 | 24.44° C | 71% | 1022 hPa | 0 mm | - | - | - |
| 1787929533 | 24.44° C | 71% | 1022 hPa | 0 mm | - | - | - |
| 1787929225 | 23.89° C | 71% | 1022 hPa | 0 mm | - | - | - |
| 1787928942 | 23.89° C | 70% | 1022.1 hPa | 0 mm | - | - | - |
| 1787928628 | 23.89° C | 74% | 1022 hPa | 0 mm | - | - | - |
| 1787928316 | 23.33° C | 72% | 1021.9 hPa | 0 mm | - | - | - |
| 1787928031 | 23.33° C | 72% | 1022 hPa | 0 mm | - | - | - |
| 1787927728 | 23.33° C | 73% | 1021.9 hPa | 0 mm | - | - | - |
| 1787927415 | 22.78° C | 74% | 1021.9 hPa | 0 mm | - | - | - |
| 1787927132 | 22.78° C | 74% | 1021.8 hPa | 0 mm | - | - | - |
| 1787926819 | 22.22° C | 74% | 1021.9 hPa | 0 mm | - | - | - |
| 1787926535 | 22.22° C | 76% | 1022 hPa | 0 mm | - | - | - |
| 1787926224 | 21.67° C | 76% | 1021.9 hPa | 0 mm | - | - | - |
| 1787925941 | 21.67° C | 77% | 1022 hPa | 0 mm | - | - | - |
| 1787925623 | 21.67° C | 77% | 1021.9 hPa | 0 mm | - | - | - |
| 1787925320 | 21.11° C | 78% | 1022 hPa | 0 mm | - | - | - |
| 1787925038 | 21.11° C | 78% | 1021.9 hPa | 0 mm | - | - | - |
| 1787924726 | 21.11° C | 79% | 1021.8 hPa | 0 mm | - | - | - |
| 1787924413 | 20.56° C | 80% | 1021.8 hPa | 0 mm | - | - | - |
| 1787924130 | 20.56° C | 80% | 1021.8 hPa | 0 mm | - | - | - |
* Rain latest hour (hover to see other rain measurements)
** Current wind speed in m/s (hover to see current wind gust speed)